User: anonymous   Login
Location: Unspecified
(0.0000°N, 0.0000°E)
Time: 05:44:17
(UTC+02:00)
Language:

BREEZE-M DEB (TANK) - Orbit

View from above orbital plane
View from above orbital plane
View from above satellite
View from above satellite

Ground track
Ground track

The orbit data is extracted from the following two-line orbital elements,

1 33374U 08044B   15146.77257792  .00001638  00000-0  67011-3 0  9995
2 33374 049.4504 090.7747 5432906 353.9740 020.8179 04.85635597117404
Epoch (UTC): 26 May 2015 18:32:30
Eccentricity: 0.5432906
inclination: 49.4504°
perigee height: 349 km
apogee height: 16354 km
right ascension of ascending node: 90.7747°
argument of perigee: 353.9740°
revolutions per day: 4.85635597
mean anomaly at epoch: 20.8179°
orbit number at epoch: 11740

The dashed part of the orbit path shows where the satellite is in the earth's shadow,  

DLR